Location: Regensburg
(49.0217°N, 12.0987°E)
Time: 17:46:09
(UTC+01:00)

ISS - Visible Passes

Search period start: 14 December 2025 00:00
Search period end: 24 December 2025 00:00
Orbit: 416 x 420 km, 51.6° (Epoch: 13 December)

Date Brightness Start Highest point End Pass type
(mag) Time Alt. Az. Time Alt. Az. Time Alt. Az.
14 Dec -1.4 06:26:37 10° SSW 06:29:27 25° SE 06:32:17 10° E visible
15 Dec -0.9 05:39:22 10° S 05:41:37 17° SE 05:43:52 10° E visible
15 Dec -3.5 07:14:36 10° WSW 07:17:58 74° SSE 07:21:20 10° ENE visible
16 Dec -0.5 04:53:43 11° SE 04:53:49 11° SE 04:54:45 10° ESE visible
16 Dec -3.0 06:26:42 10° SW 06:29:58 52° SSE 06:33:17 10° ENE visible
17 Dec -2.4 05:41:17 31° S 05:42:00 36° SSE 05:45:08 10° E visible
17 Dec -3.7 07:15:18 10° W 07:18:40 68° NNW 07:22:03 10° ENE visible
18 Dec -0.8 04:55:38 17° ESE 04:55:38 17° ESE 04:56:52 10° E visible
18 Dec -3.8 06:28:35 23° WSW 06:30:33 85° NNW 06:33:57 10° ENE visible
19 Dec -3.5 05:42:44 67° ESE 05:42:44 67° ESE 05:45:51 10° ENE visible
19 Dec -3.5 07:16:02 10° W 07:19:22 53° N 07:22:41 10° ENE visible
20 Dec -0.8 04:56:46 17° E 04:56:46 17° E 04:57:41 10° ENE visible
20 Dec -3.6 06:29:41 29° WNW 06:31:10 58° N 06:34:32 10° ENE visible
21 Dec -3.2 05:43:36 53° NE 05:43:36 53° NE 05:46:22 10° ENE visible
21 Dec -3.4 07:16:40 10° WNW 07:20:00 54° N 07:23:19 10° E visible
22 Dec -0.8 04:57:26 16° ENE 04:57:26 16° ENE 04:58:11 10° ENE visible
22 Dec -3.4 06:30:21 29° WNW 06:31:46 52° N 06:35:04 10° ENE visible
23 Dec -2.9 05:44:07 45° NE 05:44:07 45° NE 05:46:48 10° ENE visible
23 Dec -3.7 07:17:07 10° WNW 07:20:29 72° NNE 07:23:51 10° E visible
